Regional Weather Roundup
Issued by NWS Midland/Odessa, TX

Current Version | Previous Version | Text Only | Print | Product List | Glossary On
Versions: 1 2 3 4 5 6 7 8 9 10 11 12 13 14 15 16 17 18 19 20 21 22 23 24 25 26 27 28 29 30 31 32 33 34 35 36 37 38 39 40 41 42 43 44 45 46 47 48 49 50
000
ASUS44 KMAF 140310
RWRMAF
MIDLAND AREA WEATHER ROUNDUP
NATIONAL WEATHER SERVICE MIDLAND TX
1000 PM CDT SUN OCT 13 2019

...IN SOUTHWEST TEXAS AND SOUTHEAST NEW MEXICO...

CITY           SKY/WX    TMP DP  RH WIND       PRES   REMARKS
ALPINE         CLEAR     62  50  64 SW7       30.16F
ANDREWS        FAIR      70  40  33 S7        30.01R
ARTESIA        MOCLDY    68  45  42 SW12      30.01
BIG SPRING     CLEAR     70  40  34 S10       30.00S
CARLSBAD       CLOUDY    64  43  46 SW5       29.98R
DRYDEN           N/A     65  51  60 CALM      30.00F
FORT STOCKTON  CLEAR     71  47  42 SW12      30.02R
GUAD PASS      MOCLDY    62  43  49 SW12      30.15R
HOBBS          CLEAR     68  32  26 S5        30.01S
LAMESA         NOT AVBL
MARFA          CLEAR     56  52  86 CALM      30.16S
MIDLAND AIRPK  CLEAR     72  43  34 S9        29.99S
MIDLAND INTL   CLEAR     73  44  35 S10       29.99R
ODESSA         CLEAR     73  41  31 S12       30.00R
PECOS          CLEAR     74  44  34 S5        29.98S
PRESIDIO       DRIZZLE   59  58  96 CALM      30.11S
SEMINOLE       CLEAR     65  36  33 W7        30.03S
SNYDER         CLEAR     71  42  34 S9        29.98R
WINK           CLEAR     76  42  29 S13       29.97R
$$
...OTHER STATIONS IN TEXAS...

CITY           SKY/WX    TMP DP  RH WIND       PRES   REMARKS
ABILENE        CLEAR     70  43  37 S8        29.97R
AMARILLO       CLEAR     60  34  37 E12       29.98R
AUSTIN         CLOUDY    73  58  59 CALM      29.99R
BROWNSVILLE    FAIR      76  72  87 CALM      29.94R
CORPUS CHRISTI MOCLDY    78  74  87 NE10      29.95S
DALLAS FTW     MOCLDY    63  49  60 SE6       29.97R
DEL RIO        PTCLDY    72  42  34 NE6       29.99R
EL PASO        MOCLDY    72  48  42 S10       30.03R
HOUSTON INT    MOCLDY    72  62  71 E6        29.99R
LUBBOCK        MOCLDY    63  37  38 W5        29.96S
SAN ANGELO     CLEAR     70  44  39 S8        29.99R
SAN ANTONIO    CLOUDY    75  56  51 CALM      30.00R
WACO           CLEAR     64  53  67 SE5       29.99R
WICHITA FALLS  CLEAR     51  43  74 SE3       29.98R
$$
...OTHER LOCATIONS IN NEW MEXICO...

CITY           SKY/WX    TMP DP  RH WIND       PRES   REMARKS
ALAMOGORDO     PTCLDY    64  32  29 SE8       30.05
ALBUQUERQUE    PTCLDY    61  26  26 E9        30.06S
CANNON AFB     CLEAR     57  37  46 SW7       30.03
CLOVIS         CLEAR     54  39  57 S8        30.02R
HOLLOMAN AFB   NOT AVBL
ROSWELL        PTCLDY    68  42  38 SW9       29.98R
RUIDOSO        PTCLDY    54  30  40 MISG      30.20
SANTA FE       CLEAR     52  23  32 NE5       30.11S
TRUTH OR CONSE PTCLDY    68  33  27 S8        30.05R
TUCUMCARI      LGT RAIN  51  30  44 CALM      29.94R
$$



USA.gov is the U.S. government's official web portal to all federal, state and local government web resources and services.